Location: Armidale
(30.5016°S, 151.6662°E)
Time: 06:17:35
(UTC+10:00)

N. Korean satellite - Pass Details

Date: 15 May 2021
Orbit: 450 x 500 km, 97.2° (Epoch: 18 June)

Event Time Altitude Azimuth Distance (km) Brightness Sun altitude
Rises 17:40:05 0° 182° (S) 2,622 10.1 -7.5°
Reaches altitude 10° 17:42:21 10° 193° (SSW) 1,731 9.3 -8.0°
Maximum altitude 17:45:37 29° 254° (WSW) 943 8.7 -8.6°
Drops below altitude 10° 17:48:52 10° 315° (NW) 1,708 10.4 -9.3°
Sets 17:51:06 0° 326° (NNW) 2,579 11.1 -9.8°
